This demonstration page uses our WeatherBlox Daily Observations layout. Learn more.

Left ArrowRight Arrow

Hourly Observations for February 20, 2021

Temp ( °F °C ) Dew Point ( °F °C ) Humidity (%) Winds ( mph kmh ) Pressure ( in mb ) Visibility ( mi km ) Precip ( " mm )
12:15 am 00:15 Mostly Clear with Mist and Fog 8 -13.4 5 -15 88 88 N N/A 30.32 1027 5 8 N/A
12:35 am 00:35 Mostly Clear with Mist and Fog 7 -14 4 -15.7 87 87 N N/A 30.33 1027 5 8 N/A
12:55 am 00:55 undefined 4 -15.4 1 -17.2 86 86 N N/A 30.33 1027 10 16 N/A
1:15 am 01:15 undefined 6 -14.6 3 -16.3 87 87 N N/A 30.33 1027 7 11 N/A
1:35 am 01:35 undefined 6 -14.5 3 -16.2 87 87 N N/A 30.33 1027 7 11 N/A
1:55 am 01:55 undefined 6 -14.7 2 -16.4 87 87 N N/A 30.33 1027 7 11 N/A
2:15 am 02:15 undefined 5 -15.2 1 -17 86 86 N N/A 30.34 1027 7 11 N/A
2:35 am 02:35 undefined 4 -15.4 1 -17.1 87 87 N N/A 30.33 1027 7 11 N/A
2:55 am 02:55 undefined 2 -16.5 -1 -18.6 84 84 N N/A 30.33 1027 10 16 N/A
3:15 am 03:15 undefined 3 -16.2 -1 -18.1 85 85 N N/A 30.33 1027 10 16 N/A
3:35 am 03:35 undefined 2 -16.4 -1 -18.4 85 85 N N/A 30.33 1027 10 16 N/A
3:55 am 03:55 undefined 2 -16.6 -1 -18.6 85 85 N N/A 30.32 1027 10 16 N/A
4:15 am 04:15 undefined 1 -17.2 -3 -19.3 84 84 N N/A 30.33 1027 10 16 N/A
4:35 am 04:35 undefined 3 -16 N/A 85 85 N N/A 30.32 1027 10 16 N/A
4:55 am 04:55 undefined 4 -15.6 1 -17.5 85 85 N N/A 30.30 1026 7 11 N/A
5:15 am 05:15 Mostly Clear with Mist and Fog 5 -15.1 2 -16.9 86 86 SW 3 6 30.30 1026 5 8 N/A
5:35 am 05:35 undefined 9 -13 6 -14.5 89 89 SW 5 7 30.30 1026 10 16 N/A
5:55 am 05:55 undefined 10 -12.1 8 -13.6 89 89 N N/A 30.29 1026 10 16 N/A
6:15 am 06:15 undefined 12 -11 10 -12.5 89 89 W 3 6 30.26 1025 10 16 N/A
6:35 am 06:35 undefined 12 -11.2 9 -12.7 89 89 N N/A 30.27 1025 10 16 N/A
6:55 am 06:55 undefined 14 -10 12 -11.2 91 91 N N/A 30.24 1024 10 16 N/A
7:15 am 07:15 undefined 12 -11 10 -12.5 89 89 SW 3 6 30.25 1025 10 16 N/A
7:35 am 07:35 undefined 13 -10.7 10 -12.1 90 90 WSW 3 6 30.24 1024 10 16 N/A
7:55 am 07:55 undefined 12 -11.2 9 -12.7 89 89 N N/A 30.25 1024 10 16 N/A
8:15 am 08:15 undefined 14 -9.9 12 -11.1 91 91 W 5 7 30.24 1024 10 16 N/A
8:35 am 08:35 undefined 16 -9.1 13 -10.3 91 91 N N/A 30.23 1024 10 16 N/A
8:55 am 08:55 undefined 13 -10.7 10 -12 90 90 W 3 6 30.25 1024 10 16 N/A
9:15 am 09:15 undefined 16 -9 14 -10.2 91 91 NW 3 6 30.23 1024 10 16 N/A
9:35 am 09:35 undefined 17 -8.1 15 -9.5 90 90 N N/A 30.21 1023 10 16 N/A
9:55 am 09:55 undefined 18 -7.7 13 -10.5 81 81 N N/A 30.21 1023 10 16 N/A
10:15 am 10:15 undefined 19 -7.5 14 -10 83 83 N N/A 30.19 1022 10 16 N/A
10:35 am 10:35 undefined 21 -6 16 -9.1 79 79 N N/A 30.17 1022 10 16 N/A
10:55 am 10:55 undefined 22 -5.3 17 -8.2 80 80 N N/A 30.16 1021 10 16 N/A
11:15 am 11:15 undefined 25 -3.8 18 -7.7 75 75 N N/A 30.15 1021 10 16 N/A
11:35 am 11:35 undefined 27 -3 20 -6.8 75 75 N N/A 30.12 1020 10 16 N/A
11:55 am 11:55 undefined 28 -2 22 -5.8 76 76 SSE 3 6 30.10 1019 10 16 N/A
12:15 pm 12:15 undefined 30 -1 23 -5 75 75 SSE 3 6 30.09 1019 10 16 N/A
12:35 pm 12:35 undefined 32 undefined 24 -4.5 72 72 N N/A 30.07 1018 10 16 N/A
12:55 pm 12:55 undefined 33 0.7 26 -3.5 74 74 SSE 3 6 30.06 1018 10 16 N/A
1:15 pm 13:15 undefined 34 1.2 26 -3.2 73 73 SSE 6 9 30.03 1017 10 16 N/A
1:35 pm 13:35 undefined 36 2 27 -2.7 71 71 SE 6 9 30.02 1016 10 16 N/A
1:55 pm 13:55 undefined 35 1.6 28 -2 77 77 SE 5 7 30.00 1016 10 16 N/A
2:15 pm 14:15 undefined 36 2.2 29 -1.7 76 76 SE 7 11 29.98 1015 10 16 N/A
2:35 pm 14:35 undefined 37 2.7 29 -1.9 72 72 SE 10 17 29.97 1015 10 16 N/A
2:55 pm 14:55 undefined 37 2.5 29 -1.5 75 75 SE 6 9 29.97 1015 10 16 N/A
3:15 pm 15:15 undefined 36 2.2 28 -2 74 74 SE 9 15 29.96 1015 10 16 N/A
3:35 pm 15:35 undefined 36 2 28 -2 75 75 SE 10 17 29.97 1015 10 16 N/A
3:55 pm 15:55 undefined 35 1.8 28 -2.2 75 75 SE 12 19 29.96 1014 10 16 N/A
4:15 pm 16:15 undefined 35 1.5 28 -2 78 78 ESE 13 20 29.95 1014 10 16 N/A
4:35 pm 16:35 undefined 34 1.2 29 -1.9 80 80 ESE 13 20 29.94 1014 10 16 N/A
4:55 pm 16:55 undefined 34 1 28 -2 81 81 ESE 15 24 29.93 1014 10 16 N/A
5:15 pm 17:15 undefined 34 1 29 -1.8 82 82 ESE 16 26 29.92 1013 10 16 N/A
5:35 pm 17:35 undefined 33 0.5 28 -2.2 82 82 ESE 15 24 29.92 1013 10 16 N/A
5:55 pm 17:55 undefined 32 0.1 28 -2.3 84 84 E 15 24 29.91 1013 10 16 N/A
6:15 pm 18:15 undefined 32 undefined 28 -2.4 84 84 E 16 26 29.92 1013 10 16 N/A
6:35 pm 18:35 undefined 32 -0.2 28 -2.5 85 85 E 14 22 29.93 1013 10 16 N/A
6:55 pm 18:55 undefined 32 -0.2 28 -2.3 86 86 E 16 26 29.93 1013 10 16 N/A
7:15 pm 19:15 undefined 32 undefined 28 -2 87 87 E 16 26 29.92 1013 10 16 N/A
7:35 pm 19:35 undefined 31 -0.3 28 -2.4 86 86 E 14 22 29.93 1013 10 16 N/A
7:55 pm 19:55 undefined 30 -1.3 26 -3.1 88 88 ESE 14 22 29.95 1014 10 16 N/A
8:15 pm 20:15 undefined 29 -1.5 26 -3.2 88 88 ESE 15 24 29.94 1014 10 16 N/A
8:35 pm 20:35 undefined 29 -1.7 26 -3.5 88 88 ESE 12 19 29.95 1014 10 16 N/A
8:55 pm 20:55 undefined 28 -2.3 25 -3.9 89 89 ESE 12 19 29.97 1015 10 16 N/A
9:15 pm 21:15 undefined 28 -2 26 -3.6 89 89 ESE 14 22 29.95 1014 10 16 N/A
9:35 pm 21:35 undefined 30 -1.3 27 -2.8 90 90 ESE 15 24 29.95 1014 10 16 N/A
9:55 pm 21:55 undefined 30 -1.1 27 -2.8 88 88 SE 14 22 29.94 1014 10 16 N/A
10:15 pm 22:15 undefined 30 -1.3 27 -3 88 88 SE 14 22 29.94 1014 10 16 N/A
10:35 pm 22:35 undefined 30 -1.3 27 -3 88 88 SE 12 19 29.94 1014 10 16 N/A
10:55 pm 22:55 undefined 31 -0.7 28 -2.1 90 90 SE 12 19 29.93 1014 10 16 N/A
11:15 pm 23:15 undefined 32 undefined 29 -1.8 88 88 SSE 15 24 29.92 1013 10 16 N/A
11:35 pm 23:35 undefined 32 undefined 29 -1.8 88 88 SSE 10 17 29.92 1013 10 16 N/A
11:55 pm 23:55 undefined 32 undefined 29 -1.8 88 88 SSE 13 20 29.91 1013 10 16 N/A

Powered by AerisWeather